{"data":{"norad_id":56032,"epoch":"2026-05-24T22:18:00.881568Z","epoch_age_seconds":71281,"freshness":"FRESH","line1":"1 56032U 23042AY  26144.92917687  .00000228  00000+0  17819-4 0  9994","line2":"2 56032  43.0044 334.8055 0001597 268.0510  92.0159 15.27576022174695","mean_motion":15.27576022,"eccentricity":0.0001597,"inclination_deg":43.0044,"raan_deg":334.8055,"arg_perigee_deg":268.051,"mean_anomaly_deg":92.0159,"bstar":1.7819e-5,"rev_number":17469,"period_min":94.266994196116,"perigee_km":481.96527430676,"apogee_km":484.1567409504,"semimajor_km":6861.1980076286,"source":"CELESTRAK","updated_at":"2026-05-25T13:38:17.950957Z"}}